owner,sensor,date,latitude,longitude,vertical_datum,sea_water_temperature,qcFlag
Shell,ioos:station:wmo:42902:1,2020-12-01T00:09:00Z,28.6170,-87.9832,10.4,25.1,11111222
Shell,ioos:station:wmo:42902:1,2020-12-01T00:19:00Z,28.6172,-87.9835,10.4,25.1,11111222
Shell,ioos:station:wmo:42902:1,2020-12-01T00:29:00Z,28.6174,-87.9837,10.4,25.1,11111222
Shell,ioos:station:wmo:42902:1,2020-12-01T00:39:00Z,28.6176,-87.9839,10.4,25.1,11111222
Shell,ioos:station:wmo:42902:1,2020-12-01T00:49:00Z,28.6178,-87.9841,10.4,25.1,11111222
Shell,ioos:station:wmo:42902:1,2020-12-01T00:59:00Z,28.6180,-87.9844,10.4,25.1,11111222
Shell,ioos:station:wmo:42902:1,2020-12-01T01:09:00Z,28.6185,-87.9850,10.3,25.1,11111222
Shell,ioos:station:wmo:42902:1,2020-12-01T01:19:00Z,28.6194,-87.9861,10.4,25.1,11111222
Shell,ioos:station:wmo:42902:1,2020-12-01T01:29:00Z,28.6204,-87.9873,10.4,25.1,11111222
Shell,ioos:station:wmo:42902:1,2020-12-01T01:39:00Z,28.6214,-87.9884,10.3,25.1,11111222
Shell,ioos:station:wmo:42902:1,2020-12-01T01:49:00Z,28.6223,-87.9895,10.3,25.1,11111222
Shell,ioos:station:wmo:42902:1,2020-12-01T01:59:00Z,28.6233,-87.9907,10.3,25.1,11111222
Shell,ioos:station:wmo:42902:1,2020-12-01T02:09:00Z,28.6243,-87.9918,10.3,25.1,11111222
Shell,ioos:station:wmo:42902:1,2020-12-01T02:19:00Z,28.6252,-87.9930,10.3,25.1,11111222
Shell,ioos:station:wmo:42902:1,2020-12-01T02:29:00Z,28.6262,-87.9941,10.3,25.1,11111222
Shell,ioos:station:wmo:42902:1,2020-12-01T02:39:00Z,28.6271,-87.9952,10.3,25.1,11111222
Shell,ioos:station:wmo:42902:1,2020-12-01T02:49:00Z,28.6271,-87.9952,10.3,25.1,11111222
Shell,ioos:station:wmo:42902:1,2020-12-01T02:59:00Z,28.6265,-87.9958,10.4,25.1,11111222
Shell,ioos:station:wmo:42902:1,2020-12-01T03:09:00Z,28.6259,-87.9962,10.4,25.1,11111222
Shell,ioos:station:wmo:42902:1,2020-12-01T03:19:00Z,28.6252,-87.9967,10.4,25.0,11111222
Shell,ioos:station:wmo:42902:1,2020-12-01T03:29:00Z,28.6252,-87.9968,10.4,25.0,11111222
Shell,ioos:station:wmo:42902:1,2020-12-01T03:39:00Z,28.6252,-87.9967,10.4,25.0,11111222
Shell,ioos:station:wmo:42902:1,2020-12-01T03:49:00Z,28.6252,-87.9967,10.4,25.0,11111222
Shell,ioos:station:wmo:42902:1,2020-12-01T03:59:00Z,28.6252,-87.9968,10.3,25.0,11111222
Shell,ioos:station:wmo:42902:1,2020-12-01T04:09:00Z,28.6252,-87.9968,10.4,25.0,11111222
Shell,ioos:station:wmo:42902:1,2020-12-01T04:19:00Z,28.6252,-87.9967,10.4,25.0,11111222
Shell,ioos:station:wmo:42902:1,2020-12-01T04:30:00Z,28.6252,-87.9968,10.4,25.0,11111222
Shell,ioos:station:wmo:42902:1,2020-12-01T04:40:00Z,28.6252,-87.9967,10.4,25.0,11111222
Shell,ioos:station:wmo:42902:1,2020-12-01T04:50:00Z,28.6252,-87.9967,10.5,25.0,11111222
Shell,ioos:station:wmo:42902:1,2020-12-01T05:00:00Z,28.6252,-87.9967,10.5,25.0,11111222
Shell,ioos:station:wmo:42902:1,2020-12-01T05:10:00Z,28.6252,-87.9967,10.4,25.0,11111222
Shell,ioos:station:wmo:42902:1,2020-12-01T05:20:00Z,28.6252,-87.9967,10.4,25.0,11111222
Shell,ioos:station:wmo:42902:1,2020-12-01T05:30:00Z,28.6252,-87.9968,10.4,25.0,11111222
Shell,ioos:station:wmo:42902:1,2020-12-01T05:40:00Z,28.6252,-87.9968,10.4,25.0,11111222
Shell,ioos:station:wmo:42902:1,2020-12-01T05:50:00Z,28.6252,-87.9967,10.4,25.0,11111222
Shell,ioos:station:wmo:42902:1,2020-12-01T06:00:00Z,28.6252,-87.9967,10.6,25.0,11111222
Shell,ioos:station:wmo:42902:1,2020-12-01T06:10:00Z,28.6252,-87.9967,10.6,25.0,11111222
Shell,ioos:station:wmo:42902:1,2020-12-01T06:20:00Z,28.6252,-87.9967,10.6,25.0,11111222
Shell,ioos:station:wmo:42902:1,2020-12-01T06:30:00Z,28.6252,-87.9967,10.6,25.0,11111222
Shell,ioos:station:wmo:42902:1,2020-12-01T06:40:00Z,28.6252,-87.9967,10.4,25.0,11111222
Shell,ioos:station:wmo:42902:1,2020-12-01T06:50:00Z,28.6252,-87.9967,10.4,25.0,11111222
Shell,ioos:station:wmo:42902:1,2020-12-01T07:00:00Z,28.6253,-87.9967,10.2,24.9,11111222
Shell,ioos:station:wmo:42902:1,2020-12-01T07:10:00Z,28.6252,-87.9968,10.2,24.9,11111222
Shell,ioos:station:wmo:42902:1,2020-12-01T07:20:00Z,28.6252,-87.9967,10.4,24.9,11111222
Shell,ioos:station:wmo:42902:1,2020-12-01T07:30:00Z,28.6252,-87.9968,10.5,24.9,11111222
Shell,ioos:station:wmo:42902:1,2020-12-01T07:40:00Z,28.6254,-87.9967,10.4,24.9,11111222
Shell,ioos:station:wmo:42902:1,2020-12-01T07:50:00Z,28.6253,-87.9966,10.4,24.9,11111222
Shell,ioos:station:wmo:42902:1,2020-12-01T08:00:00Z,28.6252,-87.9968,10.4,24.9,11111222
Shell,ioos:station:wmo:42902:1,2020-12-01T08:10:00Z,28.6252,-87.9967,10.6,24.9,11111222
Shell,ioos:station:wmo:42902:1,2020-12-01T08:20:00Z,28.6253,-87.9964,10.7,24.9,11111222
Shell,ioos:station:wmo:42902:1,2020-12-01T08:30:00Z,28.6254,-87.9964,10.7,24.9,11111222
Shell,ioos:station:wmo:42902:1,2020-12-01T08:40:00Z,28.6253,-87.9964,10.5,24.9,11111222
Shell,ioos:station:wmo:42902:1,2020-12-01T08:50:00Z,28.6253,-87.9964,10.6,24.9,11111222
Shell,ioos:station:wmo:42902:1,2020-12-01T09:00:00Z,28.6254,-87.9966,10.6,24.9,11111222
Shell,ioos:station:wmo:42902:1,2020-12-01T09:10:00Z,28.6253,-87.9966,10.6,24.9,11111222
Shell,ioos:station:wmo:42902:1,2020-12-01T09:20:00Z,28.6254,-87.9966,10.5,24.9,11111222
Shell,ioos:station:wmo:42902:1,2020-12-01T09:30:00Z,28.6253,-87.9966,10.4,24.9,11111222
Shell,ioos:station:wmo:42902:1,2020-12-01T09:40:00Z,28.6253,-87.9966,10.3,24.9,11111222
Shell,ioos:station:wmo:42902:1,2020-12-01T09:50:00Z,28.6253,-87.9966,10.4,24.9,11111222
Shell,ioos:station:wmo:42902:1,2020-12-01T10:00:00Z,28.6253,-87.9966,10.5,24.9,11111222
Shell,ioos:station:wmo:42902:1,2020-12-01T10:10:00Z,28.6253,-87.9965,10.3,24.9,11111222
Shell,ioos:station:wmo:42902:1,2020-12-01T10:20:00Z,28.6253,-87.9965,10.4,24.9,11111222
Shell,ioos:station:wmo:42902:1,2020-12-01T10:30:00Z,28.6253,-87.9965,10.4,24.9,11111222
Shell,ioos:station:wmo:42902:1,2020-12-01T10:40:00Z,28.6253,-87.9965,10.5,24.9,11111222
Shell,ioos:station:wmo:42902:1,2020-12-01T10:50:00Z,28.6253,-87.9965,10.5,24.9,11111222
Shell,ioos:station:wmo:42902:1,2020-12-01T11:00:00Z,28.6253,-87.9965,10.6,24.9,11111222
Shell,ioos:station:wmo:42902:1,2020-12-01T11:22:00Z,28.6253,-87.9965,10.6,24.9,11111222
Shell,ioos:station:wmo:42902:1,2020-12-01T11:32:00Z,28.6253,-87.9966,10.6,24.9,11111222
Shell,ioos:station:wmo:42902:1,2020-12-01T11:42:00Z,28.6253,-87.9965,10.6,24.9,11111222
Shell,ioos:station:wmo:42902:1,2020-12-01T11:52:00Z,28.6253,-87.9965,10.6,24.9,11111222
Shell,ioos:station:wmo:42902:1,2020-12-01T12:02:00Z,28.6255,-87.9963,10.6,24.8,11111222
Shell,ioos:station:wmo:42902:1,2020-12-01T12:12:00Z,28.6262,-87.9957,10.6,24.8,11111222
Shell,ioos:station:wmo:42902:1,2020-12-01T12:22:00Z,28.6269,-87.9952,10.6,24.8,11111222
Shell,ioos:station:wmo:42902:1,2020-12-01T12:32:00Z,28.6272,-87.9949,10.6,24.8,11111222
Shell,ioos:station:wmo:42902:1,2020-12-01T12:42:00Z,28.6272,-87.9950,10.6,24.8,11111222
Shell,ioos:station:wmo:42902:1,2020-12-01T12:52:00Z,28.6271,-87.9947,10.6,24.8,11111222
Shell,ioos:station:wmo:42902:1,2020-12-01T13:02:00Z,28.6271,-87.9947,10.5,24.8,11111222
Shell,ioos:station:wmo:42902:1,2020-12-01T13:12:00Z,28.6272,-87.9947,10.4,24.8,11111222
Shell,ioos:station:wmo:42902:1,2020-12-01T13:22:00Z,28.6272,-87.9947,10.3,24.8,11111222
Shell,ioos:station:wmo:42902:1,2020-12-01T13:32:00Z,28.6269,-87.9941,10.3,24.8,11111222
Shell,ioos:station:wmo:42902:1,2020-12-01T13:42:00Z,28.6269,-87.9941,10.4,24.8,11111222
Shell,ioos:station:wmo:42902:1,2020-12-01T13:52:00Z,28.6269,-87.9940,10.4,24.8,11111222
Shell,ioos:station:wmo:42902:1,2020-12-01T14:02:00Z,28.6269,-87.9941,10.5,24.8,11111222
Shell,ioos:station:wmo:42902:1,2020-12-01T14:12:00Z,28.6269,-87.9940,10.3,24.8,11111222
Shell,ioos:station:wmo:42902:1,2020-12-01T14:22:00Z,28.6269,-87.9941,10.3,24.8,11111222
Shell,ioos:station:wmo:42902:1,2020-12-01T14:32:00Z,28.6269,-87.9941,10.3,24.8,11111222
Shell,ioos:station:wmo:42902:1,2020-12-01T14:42:00Z,28.6269,-87.9941,10.3,24.8,11111222
Shell,ioos:station:wmo:42902:1,2020-12-01T14:52:00Z,28.6269,-87.9941,10.3,24.8,11111222
Shell,ioos:station:wmo:42902:1,2020-12-01T15:02:00Z,28.6269,-87.9941,10.4,24.8,11111222
Shell,ioos:station:wmo:42902:1,2020-12-01T15:12:00Z,28.6269,-87.9941,10.3,24.8,11111222
Shell,ioos:station:wmo:42902:1,2020-12-01T15:22:00Z,28.6269,-87.9941,10.5,24.8,11111222
Shell,ioos:station:wmo:42902:1,2020-12-01T15:32:00Z,28.6269,-87.9941,10.5,24.8,11111222
Shell,ioos:station:wmo:42902:1,2020-12-01T15:42:00Z,28.6269,-87.9940,10.4,24.8,11111222
Shell,ioos:station:wmo:42902:1,2020-12-01T15:52:00Z,28.6269,-87.9941,10.5,24.8,11111222
Shell,ioos:station:wmo:42902:1,2020-12-01T16:02:00Z,28.6269,-87.9941,10.3,24.8,11111222
Shell,ioos:station:wmo:42902:1,2020-12-01T16:12:00Z,28.6269,-87.9941,10.5,24.8,11111222
Shell,ioos:station:wmo:42902:1,2020-12-01T16:22:00Z,28.6269,-87.9941,10.5,24.8,11111222
Shell,ioos:station:wmo:42902:1,2020-12-01T16:32:00Z,28.6269,-87.9941,10.4,24.8,11111222
Shell,ioos:station:wmo:42902:1,2020-12-01T16:43:00Z,28.6269,-87.9941,10.6,24.8,11111222
Shell,ioos:station:wmo:42902:1,2020-12-01T16:53:00Z,28.6269,-87.9941,10.3,24.8,11111222
Shell,ioos:station:wmo:42902:1,2020-12-01T17:03:00Z,28.6269,-87.9941,10.3,24.8,11111222
Shell,ioos:station:wmo:42902:1,2020-12-01T17:13:00Z,28.6269,-87.9941,10.5,24.8,11111222
Shell,ioos:station:wmo:42902:1,2020-12-01T17:23:00Z,28.6268,-87.9941,10.4,24.8,11111222
Shell,ioos:station:wmo:42902:1,2020-12-01T17:33:00Z,28.6269,-87.9941,10.4,24.8,11111222
Shell,ioos:station:wmo:42902:1,2020-12-01T17:43:00Z,28.6269,-87.9941,10.4,24.8,11111222
Shell,ioos:station:wmo:42902:1,2020-12-01T17:53:00Z,28.6269,-87.9941,10.6,24.8,11111222
Shell,ioos:station:wmo:42902:1,2020-12-01T18:03:00Z,28.6269,-87.9941,10.5,24.8,11111222
Shell,ioos:station:wmo:42902:1,2020-12-01T18:13:00Z,28.6269,-87.9941,10.5,24.8,11111222
Shell,ioos:station:wmo:42902:1,2020-12-01T18:23:00Z,28.6269,-87.9941,10.4,24.7,11111222
Shell,ioos:station:wmo:42902:1,2020-12-01T18:33:00Z,28.6269,-87.9941,10.5,24.7,11111222
Shell,ioos:station:wmo:42902:1,2020-12-01T18:43:00Z,28.6269,-87.9941,10.5,24.7,11111222
Shell,ioos:station:wmo:42902:1,2020-12-01T18:53:00Z,28.6269,-87.9941,10.4,24.7,11111222
Shell,ioos:station:wmo:42902:1,2020-12-01T19:03:00Z,28.6269,-87.9941,10.5,24.7,11111222
Shell,ioos:station:wmo:42902:1,2020-12-01T19:13:00Z,28.6269,-87.9941,10.5,24.7,11111222
Shell,ioos:station:wmo:42902:1,2020-12-01T19:23:00Z,28.6269,-87.9941,10.5,24.7,11111222
Shell,ioos:station:wmo:42902:1,2020-12-01T19:33:00Z,28.6269,-87.9941,10.5,24.7,11111222
Shell,ioos:station:wmo:42902:1,2020-12-01T19:43:00Z,28.6269,-87.9941,10.6,24.7,11111222
Shell,ioos:station:wmo:42902:1,2020-12-01T19:53:00Z,28.6269,-87.9941,10.3,24.7,11111222
Shell,ioos:station:wmo:42902:1,2020-12-01T20:03:00Z,28.6269,-87.9941,10.3,24.7,11111222
Shell,ioos:station:wmo:42902:1,2020-12-01T20:13:00Z,28.6269,-87.9941,10.3,24.7,11111222
Shell,ioos:station:wmo:42902:1,2020-12-01T20:23:00Z,28.6269,-87.9941,10.4,24.7,11111222
Shell,ioos:station:wmo:42902:1,2020-12-01T20:33:00Z,28.6269,-87.9941,10.4,24.7,11111222
Shell,ioos:station:wmo:42902:1,2020-12-01T20:43:00Z,28.6269,-87.9941,10.3,24.7,11111222
Shell,ioos:station:wmo:42902:1,2020-12-01T20:53:00Z,28.6269,-87.9941,10.2,24.7,11111222
Shell,ioos:station:wmo:42902:1,2020-12-01T21:03:00Z,28.6269,-87.9941,10.3,24.7,11111222
Shell,ioos:station:wmo:42902:1,2020-12-01T21:13:00Z,28.6269,-87.9941,10.2,24.7,11111222
Shell,ioos:station:wmo:42902:1,2020-12-01T21:23:00Z,28.6269,-87.9941,10.2,24.7,11111222
Shell,ioos:station:wmo:42902:1,2020-12-01T21:33:00Z,28.6269,-87.9941,10.3,24.7,11111222
Shell,ioos:station:wmo:42902:1,2020-12-01T21:43:00Z,28.6269,-87.9941,10.3,24.7,11111222
Shell,ioos:station:wmo:42902:1,2020-12-01T21:53:00Z,28.6269,-87.9941,10.4,24.7,11111222
Shell,ioos:station:wmo:42902:1,2020-12-01T22:03:00Z,28.6269,-87.9941,10.5,24.7,11111222
Shell,ioos:station:wmo:42902:1,2020-12-01T22:13:00Z,28.6269,-87.9941,10.5,24.7,11111222
Shell,ioos:station:wmo:42902:1,2020-12-01T22:23:00Z,28.6269,-87.9941,10.5,24.7,11111222
Shell,ioos:station:wmo:42902:1,2020-12-01T22:33:00Z,28.6269,-87.9941,10.4,24.7,11111222
Shell,ioos:station:wmo:42902:1,2020-12-01T22:43:00Z,28.6269,-87.9941,10.4,24.7,11111222
Shell,ioos:station:wmo:42902:1,2020-12-01T22:53:00Z,28.6269,-87.9941,10.5,24.7,11111222
Shell,ioos:station:wmo:42902:1,2020-12-01T23:03:00Z,28.6269,-87.9941,10.4,24.7,11111222
Shell,ioos:station:wmo:42902:1,2020-12-01T23:13:00Z,28.6269,-87.9941,10.4,24.7,11111222
Shell,ioos:station:wmo:42902:1,2020-12-01T23:23:00Z,28.6269,-87.9941,10.3,24.7,11111222
Shell,ioos:station:wmo:42902:1,2020-12-01T23:33:00Z,28.6269,-87.9941,10.4,24.7,11111222
Shell,ioos:station:wmo:42902:1,2020-12-01T23:43:00Z,28.6269,-87.9941,10.6,24.7,11111222
Shell,ioos:station:wmo:42902:1,2020-12-01T23:53:00Z,28.6269,-87.9941,10.5,24.7,11111222
Shell,ioos:station:wmo:42902:1,2020-12-02T00:04:00Z,28.6269,-87.9941,10.4,24.7,11111222
Shell,ioos:station:wmo:42902:1,2020-12-02T00:14:00Z,28.6269,-87.9941,10.3,24.7,11111222
Shell,ioos:station:wmo:42902:1,2020-12-02T00:24:00Z,28.6269,-87.9941,10.3,24.7,11111222
Shell,ioos:station:wmo:42902:1,2020-12-02T00:34:00Z,28.6269,-87.9941,10.3,24.7,11111222
Shell,ioos:station:wmo:42902:1,2020-12-02T00:44:00Z,28.6269,-87.9941,10.4,24.7,11111222
Shell,ioos:station:wmo:42902:1,2020-12-02T00:54:00Z,28.6269,-87.9941,10.5,24.7,11111222
Shell,ioos:station:wmo:42902:1,2020-12-02T01:04:00Z,28.6269,-87.9941,10.5,24.7,11111222
Shell,ioos:station:wmo:42902:1,2020-12-02T01:14:00Z,28.6269,-87.9941,10.5,24.7,11111222
Shell,ioos:station:wmo:42902:1,2020-12-02T01:24:00Z,28.6269,-87.9941,10.5,24.7,11111222
Shell,ioos:station:wmo:42902:1,2020-12-02T01:34:00Z,28.6269,-87.9941,10.5,24.7,11111222
Shell,ioos:station:wmo:42902:1,2020-12-02T01:44:00Z,28.6269,-87.9941,10.4,24.7,11111222
Shell,ioos:station:wmo:42902:1,2020-12-02T01:54:00Z,28.6269,-87.9941,10.4,24.7,11111222
Shell,ioos:station:wmo:42902:1,2020-12-02T02:04:00Z,28.6269,-87.9941,10.5,24.7,11111222
Shell,ioos:station:wmo:42902:1,2020-12-02T02:14:00Z,28.6269,-87.9941,10.7,24.6,11111222
Shell,ioos:station:wmo:42902:1,2020-12-02T02:24:00Z,28.6269,-87.9941,10.5,24.6,11111222
Shell,ioos:station:wmo:42902:1,2020-12-02T02:34:00Z,28.6269,-87.9941,10.4,24.6,11111222
Shell,ioos:station:wmo:42902:1,2020-12-02T02:44:00Z,28.6269,-87.9941,10.4,24.6,11111222
Shell,ioos:station:wmo:42902:1,2020-12-02T02:54:00Z,28.6269,-87.9941,10.4,24.6,11111222
Shell,ioos:station:wmo:42902:1,2020-12-02T03:04:00Z,28.6269,-87.9941,10.3,24.6,11111222
Shell,ioos:station:wmo:42902:1,2020-12-02T03:14:00Z,28.6269,-87.9941,10.3,24.6,11111222
Shell,ioos:station:wmo:42902:1,2020-12-02T03:24:00Z,28.6269,-87.9941,10.4,24.6,11111222
Shell,ioos:station:wmo:42902:1,2020-12-02T03:34:00Z,28.6269,-87.9941,10.5,24.6,11111222
Shell,ioos:station:wmo:42902:1,2020-12-02T03:44:00Z,28.6269,-87.9941,10.5,24.6,11111222
Shell,ioos:station:wmo:42902:1,2020-12-02T03:54:00Z,28.6269,-87.9941,10.4,24.6,11111222
Shell,ioos:station:wmo:42902:1,2020-12-02T04:04:00Z,28.6269,-87.9941,10.4,24.6,11111222
Shell,ioos:station:wmo:42902:1,2020-12-02T04:14:00Z,28.6269,-87.9941,10.4,24.6,11111222
Shell,ioos:station:wmo:42902:1,2020-12-02T04:24:00Z,28.6269,-87.9941,10.4,24.6,11111222
Shell,ioos:station:wmo:42902:1,2020-12-02T04:34:00Z,28.6269,-87.9941,10.3,24.6,11111222
Shell,ioos:station:wmo:42902:1,2020-12-02T04:44:00Z,28.6269,-87.9941,10.4,24.6,11111222
Shell,ioos:station:wmo:42902:1,2020-12-02T04:54:00Z,28.6269,-87.9941,10.4,24.6,11111222
Shell,ioos:station:wmo:42902:1,2020-12-02T05:04:00Z,28.6269,-87.9941,10.3,24.6,11111222
Shell,ioos:station:wmo:42902:1,2020-12-02T05:14:00Z,28.6268,-87.9941,10.5,24.6,11111222
Shell,ioos:station:wmo:42902:1,2020-12-02T05:24:00Z,28.6269,-87.9941,10.6,24.6,11111222
Shell,ioos:station:wmo:42902:1,2020-12-02T05:34:00Z,28.6269,-87.9941,10.5,24.6,11111222
Shell,ioos:station:wmo:42902:1,2020-12-02T05:44:00Z,28.6269,-87.9941,10.4,24.6,11111222
Shell,ioos:station:wmo:42902:1,2020-12-02T05:54:00Z,28.6269,-87.9941,10.5,24.6,11111222
Shell,ioos:station:wmo:42902:1,2020-12-02T06:04:00Z,28.6269,-87.9941,10.6,24.6,11111222
Shell,ioos:station:wmo:42902:1,2020-12-02T06:14:00Z,28.6269,-87.9941,10.5,24.6,11111222
Shell,ioos:station:wmo:42902:1,2020-12-02T06:24:00Z,28.6269,-87.9940,10.5,24.6,11111222
Shell,ioos:station:wmo:42902:1,2020-12-02T06:34:00Z,28.6269,-87.9941,10.4,24.6,11111222
Shell,ioos:station:wmo:42902:1,2020-12-02T06:44:00Z,28.6269,-87.9941,10.4,24.6,11111222
Shell,ioos:station:wmo:42902:1,2020-12-02T06:54:00Z,28.6269,-87.9941,10.4,24.6,11111222
Shell,ioos:station:wmo:42902:1,2020-12-02T07:04:00Z,28.6269,-87.9941,10.5,24.6,11111222
Shell,ioos:station:wmo:42902:1,2020-12-02T07:14:00Z,28.6269,-87.9941,10.4,24.6,11111222
Shell,ioos:station:wmo:42902:1,2020-12-02T07:25:00Z,28.6269,-87.9941,10.4,24.6,11111222
Shell,ioos:station:wmo:42902:1,2020-12-02T07:35:00Z,28.6269,-87.9941,10.4,24.6,11111222
Shell,ioos:station:wmo:42902:1,2020-12-02T07:45:00Z,28.6269,-87.9941,10.4,24.6,11111222
Shell,ioos:station:wmo:42902:1,2020-12-02T07:55:00Z,28.6269,-87.9941,10.4,24.6,11111222
Shell,ioos:station:wmo:42902:1,2020-12-02T08:05:00Z,28.6268,-87.9941,10.4,24.6,11111222
Shell,ioos:station:wmo:42902:1,2020-12-02T08:15:00Z,28.6268,-87.9940,10.6,24.7,11111222
Shell,ioos:station:wmo:42902:1,2020-12-02T08:25:00Z,28.6269,-87.9941,10.6,24.7,11111222
Shell,ioos:station:wmo:42902:1,2020-12-02T08:35:00Z,28.6269,-87.9941,10.6,24.7,11111222
Shell,ioos:station:wmo:42902:1,2020-12-02T08:45:00Z,28.6269,-87.9941,10.6,24.7,11111222
Shell,ioos:station:wmo:42902:1,2020-12-02T08:55:00Z,28.6269,-87.9941,10.6,24.7,11111222
Shell,ioos:station:wmo:42902:1,2020-12-02T09:05:00Z,28.6269,-87.9941,10.7,24.7,11111222
Shell,ioos:station:wmo:42902:1,2020-12-02T09:15:00Z,28.6269,-87.9941,10.6,24.7,11111222
Shell,ioos:station:wmo:42902:1,2020-12-02T09:25:00Z,28.6269,-87.9941,10.5,24.7,11111222
Shell,ioos:station:wmo:42902:1,2020-12-02T09:35:00Z,28.6269,-87.9941,10.6,24.7,11111222
Shell,ioos:station:wmo:42902:1,2020-12-02T09:45:00Z,28.6269,-87.9941,10.6,24.7,11111222
Shell,ioos:station:wmo:42902:1,2020-12-02T09:55:00Z,28.6269,-87.9941,10.5,24.7,11111222
Shell,ioos:station:wmo:42902:1,2020-12-02T10:05:00Z,28.6269,-87.9941,10.5,24.7,11111222
Shell,ioos:station:wmo:42902:1,2020-12-02T10:15:00Z,28.6269,-87.9941,10.3,24.7,11111222
Shell,ioos:station:wmo:42902:1,2020-12-02T10:25:00Z,28.6269,-87.9941,10.5,24.7,11111222
Shell,ioos:station:wmo:42902:1,2020-12-02T10:35:00Z,28.6269,-87.9941,10.7,24.7,11111222
Shell,ioos:station:wmo:42902:1,2020-12-02T10:45:00Z,28.6269,-87.9941,10.6,24.6,11111222
Shell,ioos:station:wmo:42902:1,2020-12-02T10:55:00Z,28.6269,-87.9940,10.6,24.6,11111222
Shell,ioos:station:wmo:42902:1,2020-12-02T11:05:00Z,28.6269,-87.9941,10.6,24.6,11111222
Shell,ioos:station:wmo:42902:1,2020-12-02T11:15:00Z,28.6269,-87.9941,10.6,24.6,11111222
Shell,ioos:station:wmo:42902:1,2020-12-02T11:25:00Z,28.6269,-87.9941,10.7,24.6,11111222
Shell,ioos:station:wmo:42902:1,2020-12-02T11:35:00Z,28.6269,-87.9941,10.6,24.7,11111222
Shell,ioos:station:wmo:42902:1,2020-12-02T11:45:00Z,28.6269,-87.9941,10.5,24.7,11111222
Shell,ioos:station:wmo:42902:1,2020-12-02T11:55:00Z,28.6269,-87.9941,10.4,24.7,11111222
Shell,ioos:station:wmo:42902:1,2020-12-02T12:05:00Z,28.6269,-87.9941,10.5,24.7,11111222
Shell,ioos:station:wmo:42902:1,2020-12-02T12:15:00Z,28.6269,-87.9941,10.5,24.7,11111222
Shell,ioos:station:wmo:42902:1,2020-12-02T12:25:00Z,28.6268,-87.9941,10.5,24.7,11111222
Shell,ioos:station:wmo:42902:1,2020-12-02T12:35:00Z,28.6269,-87.9941,10.5,24.7,11111222
Shell,ioos:station:wmo:42902:1,2020-12-02T12:45:00Z,28.6269,-87.9941,10.6,24.7,11111222
Shell,ioos:station:wmo:42902:1,2020-12-02T12:55:00Z,28.6269,-87.9941,10.6,24.7,11111222
Shell,ioos:station:wmo:42902:1,2020-12-02T13:05:00Z,28.6269,-87.9941,10.6,24.7,11111222
Shell,ioos:station:wmo:42902:1,2020-12-02T13:15:00Z,28.6269,-87.9941,10.6,24.7,11111222
Shell,ioos:station:wmo:42902:1,2020-12-02T13:25:00Z,28.6269,-87.9941,10.6,24.7,11111222
Shell,ioos:station:wmo:42902:1,2020-12-02T13:35:00Z,28.6269,-87.9941,10.6,24.7,11111222
Shell,ioos:station:wmo:42902:1,2020-12-02T13:45:00Z,28.6269,-87.9941,10.6,24.7,11111222
Shell,ioos:station:wmo:42902:1,2020-12-02T13:55:00Z,28.6269,-87.9940,10.6,24.7,11111222
Shell,ioos:station:wmo:42902:1,2020-12-02T14:05:00Z,28.6269,-87.9941,10.6,24.7,11111222
Shell,ioos:station:wmo:42902:1,2020-12-02T14:15:00Z,28.6269,-87.9941,10.6,24.7,11111222
Shell,ioos:station:wmo:42902:1,2020-12-02T14:25:00Z,28.6269,-87.9941,10.6,24.7,11111222
Shell,ioos:station:wmo:42902:1,2020-12-02T14:35:00Z,28.6269,-87.9941,10.6,24.6,11111222
Shell,ioos:station:wmo:42902:1,2020-12-02T14:46:00Z,28.6269,-87.9941,10.6,24.6,11111222
Shell,ioos:station:wmo:42902:1,2020-12-02T14:56:00Z,28.6269,-87.9941,10.6,24.6,11111222
Shell,ioos:station:wmo:42902:1,2020-12-02T15:06:00Z,28.6269,-87.9941,10.6,24.6,11111222
Shell,ioos:station:wmo:42902:1,2020-12-02T15:16:00Z,28.6269,-87.9941,10.6,24.7,11111222
Shell,ioos:station:wmo:42902:1,2020-12-02T15:26:00Z,28.6269,-87.9941,10.5,24.7,11111222
Shell,ioos:station:wmo:42902:1,2020-12-02T15:36:00Z,28.6269,-87.9941,10.5,24.7,11111222
Shell,ioos:station:wmo:42902:1,2020-12-02T15:46:00Z,28.6269,-87.9941,10.5,24.7,11111222
Shell,ioos:station:wmo:42902:1,2020-12-02T15:56:00Z,28.6269,-87.9941,10.6,24.7,11111222
Shell,ioos:station:wmo:42902:1,2020-12-02T16:06:00Z,28.6269,-87.9941,10.6,24.7,11111222
Shell,ioos:station:wmo:42902:1,2020-12-02T16:16:00Z,28.6269,-87.9941,10.6,24.7,11111222
Shell,ioos:station:wmo:42902:1,2020-12-02T16:26:00Z,28.6269,-87.9941,10.6,24.7,11111222
Shell,ioos:station:wmo:42902:1,2020-12-02T16:36:00Z,28.6269,-87.9941,10.6,24.7,11111222
Shell,ioos:station:wmo:42902:1,2020-12-02T16:46:00Z,28.6269,-87.9941,10.6,24.6,11111222
Shell,ioos:station:wmo:42902:1,2020-12-02T16:56:00Z,28.6269,-87.9941,10.6,24.6,11111222
Shell,ioos:station:wmo:42902:1,2020-12-02T17:06:00Z,28.6269,-87.9941,10.7,24.6,11111222
Shell,ioos:station:wmo:42902:1,2020-12-02T17:16:00Z,28.6269,-87.9941,10.6,24.6,11111222
Shell,ioos:station:wmo:42902:1,2020-12-02T17:26:00Z,28.6269,-87.9941,10.6,24.6,11111222
Shell,ioos:station:wmo:42902:1,2020-12-02T17:36:00Z,28.6269,-87.9941,10.6,24.6,11111222
Shell,ioos:station:wmo:42902:1,2020-12-02T17:46:00Z,28.6268,-87.9941,10.5,24.7,11111222
Shell,ioos:station:wmo:42902:1,2020-12-02T17:56:00Z,28.6269,-87.9941,10.5,24.6,11111222
Shell,ioos:station:wmo:42902:1,2020-12-02T18:06:00Z,28.6269,-87.9941,10.5,24.6,11111222
Shell,ioos:station:wmo:42902:1,2020-12-02T18:16:00Z,28.6269,-87.9941,10.5,24.6,11111222
Shell,ioos:station:wmo:42902:1,2020-12-02T18:26:00Z,28.6268,-87.9941,10.5,24.6,11111222
Shell,ioos:station:wmo:42902:1,2020-12-02T18:36:00Z,28.6269,-87.9941,10.5,24.6,11111222
Shell,ioos:station:wmo:42902:1,2020-12-02T18:46:00Z,28.6269,-87.9941,10.5,24.6,11111222
Shell,ioos:station:wmo:42902:1,2020-12-02T18:56:00Z,28.6269,-87.9941,10.5,24.6,11111222
Shell,ioos:station:wmo:42902:1,2020-12-02T19:06:00Z,28.6269,-87.9941,10.7,24.6,11111222
Shell,ioos:station:wmo:42902:1,2020-12-02T19:16:00Z,28.6265,-87.9939,10.6,24.6,11111222
Shell,ioos:station:wmo:42902:1,2020-12-02T19:26:00Z,28.6265,-87.9939,10.6,24.6,11111222
Shell,ioos:station:wmo:42902:1,2020-12-02T19:36:00Z,28.6265,-87.9939,10.5,24.6,11111222
Shell,ioos:station:wmo:42902:1,2020-12-02T19:46:00Z,28.6265,-87.9939,10.4,24.7,11111222
Shell,ioos:station:wmo:42902:1,2020-12-02T19:56:00Z,28.6265,-87.9939,10.4,24.7,11111222
Shell,ioos:station:wmo:42902:1,2020-12-02T20:06:00Z,28.6265,-87.9939,10.5,24.7,11111222
Shell,ioos:station:wmo:42902:1,2020-12-02T20:16:00Z,28.6265,-87.9939,10.5,24.7,11111222
Shell,ioos:station:wmo:42902:1,2020-12-02T20:26:00Z,28.6265,-87.9939,10.5,24.7,11111222
Shell,ioos:station:wmo:42902:1,2020-12-02T20:36:00Z,28.6265,-87.9939,10.5,24.7,11111222
Shell,ioos:station:wmo:42902:1,2020-12-02T20:46:00Z,28.6265,-87.9939,10.4,24.7,11111222
Shell,ioos:station:wmo:42902:1,2020-12-02T20:56:00Z,28.6265,-87.9939,10.5,24.7,11111222